TimePST,TemperatureF,Dew PointF,Humidity,Sea Level PressureIn,VisibilityMPH,Wind Direction,Wind SpeedMPH,Gust SpeedMPH,PrecipitationIn,Events,Conditions,WindDirDegrees,DateUTC
12:53 AM,37.9,34.0,86,30.38,10.0,ESE,4.6,-,N/A,,Mostly Cloudy,120,2012-12-09 08:53:00
1:53 AM,37.9,34.0,86,30.38,10.0,SE,4.6,-,N/A,,Overcast,140,2012-12-09 09:53:00
2:05 AM,37.4,33.8,87,30.35,10.0,SSE,5.8,-,N/A,,Mostly Cloudy,150,2012-12-09 10:05:00
2:53 AM,37.9,34.0,86,30.40,10.0,SSE,5.8,-,N/A,,Mostly Cloudy,160,2012-12-09 10:53:00
3:12 AM,37.4,33.8,87,30.35,10.0,SSE,4.6,-,N/A,,Mostly Cloudy,160,2012-12-09 11:12:00
3:53 AM,37.9,35.1,89,30.40,10.0,SE,4.6,-,N/A,,Overcast,140,2012-12-09 11:53:00
4:29 AM,37.4,35.6,93,30.36,10.0,SSE,3.5,-,N/A,,Overcast,150,2012-12-09 12:29:00
4:53 AM,39.0,35.1,86,30.40,10.0,SSE,4.6,-,N/A,,Overcast,150,2012-12-09 12:53:00
5:14 AM,39.2,35.6,87,30.36,10.0,SE,8.1,-,N/A,,Overcast,140,2012-12-09 13:14:00
5:32 AM,39.2,35.6,87,30.36,10.0,SE,6.9,-,N/A,,Overcast,130,2012-12-09 13:32:00
5:53 AM,39.0,34.0,82,30.39,10.0,SE,5.8,-,N/A,,Overcast,130,2012-12-09 13:53:00
6:53 AM,39.0,34.0,82,30.38,10.0,SE,4.6,-,N/A,,Overcast,130,2012-12-09 14:53:00
7:53 AM,39.0,33.1,79,30.38,10.0,ESE,8.1,-,0.00,Rain,Light Rain,110,2012-12-09 15:53:00
8:53 AM,39.0,33.1,79,30.37,10.0,SE,4.6,-,0.01,,Overcast,140,2012-12-09 16:53:00
9:07 AM,39.2,33.8,81,30.35,10.0,SSE,3.5,-,N/A,,Overcast,160,2012-12-09 17:07:00
9:53 AM,39.9,34.0,79,30.39,10.0,SSE,4.6,-,N/A,,Overcast,150,2012-12-09 17:53:00
10:53 AM,39.9,34.0,79,30.37,10.0,SE,8.1,-,0.00,,Overcast,130,2012-12-09 18:53:00
11:53 AM,41.0,36.0,82,30.33,10.0,SSE,6.9,-,N/A,,Overcast,160,2012-12-09 19:53:00
12:53 PM,41.0,37.0,86,30.32,5.0,South,4.6,-,0.01,Rain,Light Rain,170,2012-12-09 20:53:00
1:21 PM,39.2,37.4,93,30.30,2.0,South,3.5,-,0.00,,Overcast,170,2012-12-09 21:21:00
1:53 PM,41.0,37.9,89,30.32,2.0,SE,5.8,-,0.00,,Overcast,140,2012-12-09 21:53:00
2:35 PM,41.0,37.4,87,30.28,0.8,ESE,6.9,-,N/A,,Overcast,110,2012-12-09 22:35:00
2:53 PM,41.0,39.0,93,30.30,0.8,ESE,5.8,-,N/A,,Overcast,120,2012-12-09 22:53:00
3:51 PM,41.0,39.2,93,30.29,0.8,ESE,4.6,-,N/A,,Overcast,120,2012-12-09 23:51:00
3:53 PM,41.0,39.0,93,30.32,0.8,ESE,3.5,-,N/A,,Overcast,110,2012-12-09 23:53:00
4:24 PM,42.8,39.2,87,30.29,2.0,ESE,5.8,-,N/A,,Overcast,110,2012-12-10 00:24:00
4:31 PM,42.8,39.2,87,30.29,1.0,ESE,5.8,-,N/A,,Overcast,110,2012-12-10 00:31:00
4:45 PM,42.8,39.2,87,30.30,1.0,East,3.5,-,N/A,,Overcast,80,2012-12-10 00:45:00
4:53 PM,42.1,39.0,89,30.32,1.0,East,6.9,-,N/A,,Overcast,100,2012-12-10 00:53:00
5:32 PM,42.8,39.2,87,30.30,3.0,ENE,3.5,-,N/A,,Overcast,60,2012-12-10 01:32:00
5:48 PM,42.8,39.2,87,30.30,2.0,Calm,Calm,-,0.01,Rain,Light Rain,0,2012-12-10 01:48:00
5:53 PM,43.0,39.9,89,30.34,1.8,Calm,Calm,-,0.01,Rain,Light Rain,0,2012-12-10 01:53:00
6:24 PM,42.8,39.2,87,30.30,1.8,Calm,Calm,-,0.01,,Overcast,0,2012-12-10 02:24:00
6:30 PM,42.8,39.2,87,30.30,2.0,Calm,Calm,-,0.01,,Overcast,0,2012-12-10 02:30:00
6:40 PM,42.8,41.0,93,30.30,2.0,SE,3.5,-,0.02,,Overcast,130,2012-12-10 02:40:00
6:53 PM,43.0,41.0,93,30.32,2.0,East,4.6,-,0.02,,Overcast,100,2012-12-10 02:53:00
7:04 PM,42.8,41.0,93,30.30,2.0,East,4.6,-,N/A,,Overcast,90,2012-12-10 03:04:00
7:16 PM,42.8,41.0,93,30.31,1.0,ENE,4.6,-,N/A,,Overcast,70,2012-12-10 03:16:00
7:32 PM,42.8,41.0,93,30.30,1.0,SE,3.5,-,0.00,Rain,Light Rain,130,2012-12-10 03:32:00
7:40 PM,42.8,41.0,93,30.30,1.0,ESE,3.5,-,0.00,,Overcast,120,2012-12-10 03:40:00
7:53 PM,43.0,41.0,93,30.33,1.0,ESE,3.5,-,0.01,,Overcast,120,2012-12-10 03:53:00
8:49 PM,42.8,41.0,93,30.31,0.8,Calm,Calm,-,N/A,,Overcast,0,2012-12-10 04:49:00
8:53 PM,43.0,41.0,93,30.35,0.8,Calm,Calm,-,N/A,,Overcast,0,2012-12-10 04:53:00
9:36 PM,42.8,41.0,93,30.33,0.5,NNE,8.1,-,N/A,Fog,Fog,30,2012-12-10 05:36:00
9:53 PM,43.0,41.0,93,30.36,0.5,North,4.6,-,N/A,Fog,Fog,360,2012-12-10 05:53:00
10:21 PM,42.8,41.0,93,30.34,1.0,NE,4.6,-,N/A,,Mist,40,2012-12-10 06:21:00
10:38 PM,42.8,41.0,93,30.34,2.0,Calm,Calm,-,N/A,,Overcast,0,2012-12-10 06:38:00
10:53 PM,43.0,41.0,93,30.38,2.5,Calm,Calm,-,N/A,,Overcast,0,2012-12-10 06:53:00
11:00 PM,42.8,41.0,93,30.35,3.0,Calm,Calm,-,N/A,,Overcast,0,2012-12-10 07:00:00
11:39 PM,44.6,41.0,87,30.34,0.5,Calm,Calm,-,N/A,,Overcast,0,2012-12-10 07:39:00
11:53 PM,44.1,41.0,89,30.38,0.5,NNE,4.6,-,N/A,,Overcast,30,2012-12-10 07:53:00